�N����,�����b,�ŏ������i�x�j,���ϕ����i�x�j,�ő啗���i�x�j,�ŏ�����(m/s),���ϕ���(m/s),�ő啗��(m/s),�C��(���j,���x�i���j,�C��(hPa),�~�J��(mm),�~�J����(�b�j,�~�J���x(mm/h),�ő�~�J���x(mm/h),�~�Ђ傤��(hit/���u),�~�Ђ傤����(�b�j,�~�Ђ傤���x(hit/���uh),�ő�~�Ђ傤���x(hit/���uh),�q�[�^���x(���j,�q�[�^�[�d���iV),�d���d���iV),�Q�Ɠd���iV)
2014/02/01,00:00:01,113,117,121,8.3,8.7,9.0,19.1,77.0,1013.8,0.00,0,0.0,////,0.0,0,0.0,////,17.7,0.0,12.3,3.521
2014/02/01,00:10:01,128,130,132,7.4,7.6,7.7,19.2,76.6,1014.1,0.00,0,0.0,////,0.0,0,0.0,////,17.9,0.0,12.3,3.523
2014/02/01,00:20:01,114,117,122,3.2,3.8,4.8,19.2,76.3,1014.3,0.00,0,0.0,////,0.0,0,0.0,////,17.9,0.0,12.3,3.524
2014/02/01,00:30:01,140,143,147,2.5,2.7,2.9,19.3,76.0,1014.4,0.00,0,0.0,////,0.0,0,0.0,////,18.1,0.0,12.3,3.523
2014/02/01,00:40:01,132,143,164,1.2,1.6,2.0,19.4,75.7,1014.3,0.00,0,0.0,////,0.0,0,0.0,////,18.1,0.0,12.3,3.521
2014/02/01,00:50:01,151,155,157,1.8,2.0,2.1,19.3,76.0,1014.3,0.00,0,0.0,////,0.0,0,0.0,////,18.1,0.0,12.3,3.523
2014/02/01,01:00:01,125,134,145,1.1,1.3,1.4,19.3,76.2,1014.2,0.00,0,0.0,////,0.0,0,0.0,////,17.9,0.0,12.3,3.523
2014/02/01,01:10:01,118,120,123,2.7,3.1,3.3,19.4,76.3,1014.2,0.00,0,0.0,////,0.0,0,0.0,////,18.2,0.0,12.3,3.521
2014/02/01,01:20:01,133,137,142,1.5,1.8,2.0,19.5,76.4,1014.2,0.00,0,0.0,////,0.0,0,0.0,////,17.9,0.0,12.3,3.523
2014/02/01,01:30:01,137,147,156,1.6,1.9,2.3,19.4,76.7,1014.1,0.00,0,0.0,////,0.0,0,0.0,////,18.2,0.0,12.3,3.521
2014/02/01,01:40:01,130,145,163,1.1,1.4,1.7,19.4,77.2,1014.0,0.00,0,0.0,////,0.0,0,0.0,////,18.1,0.0,12.3,3.523
2014/02/01,01:50:01,121,122,124,2.8,3.4,3.8,19.4,76.8,1013.8,0.00,0,0.0,////,0.0,0,0.0,////,17.9,0.0,12.3,3.523
2014/02/01,02:00:01,129,132,135,2.9,3.2,3.5,19.4,76.5,1013.8,0.00,0,0.0,////,0.0,0,0.0,////,17.9,0.0,12.3,3.523
2014/02/01,02:10:01,128,129,130,2.5,2.6,2.8,19.4,76.6,1013.8,0.00,0,0.0,////,0.0,0,0.0,////,18.2,0.0,12.3,3.524
2014/02/01,02:20:01,130,133,136,3.3,3.5,3.6,19.5,76.4,1013.6,0.00,0,0.0,////,0.0,0,0.0,////,18.2,0.0,12.3,3.521
2014/02/01,02:30:01,133,135,137,2.3,2.4,2.6,19.4,76.3,1013.5,0.00,0,0.0,////,0.0,0,0.0,////,18.1,0.0,12.3,3.523
2014/02/01,02:40:01,112,118,123,2.1,2.4,2.6,19.3,76.5,1013.4,0.00,0,0.0,////,0.0,0,0.0,////,18.1,0.0,12.3,3.523
2014/02/01,02:50:01,137,139,142,2.0,2.2,2.4,19.0,76.9,1013.2,0.00,0,0.0,////,0.0,0,0.0,////,17.7,0.0,12.3,3.520
2014/02/01,03:00:01,133,135,140,2.5,3.0,3.4,19.0,76.9,1013.2,0.00,0,0.0,////,0.0,0,0.0,////,17.9,0.0,12.3,3.523
2014/02/01,03:10:01,121,129,140,2.9,3.1,3.4,19.0,76.6,1013.0,0.00,0,0.0,////,0.0,0,0.0,////,17.7,0.0,12.3,3.523
2014/02/01,03:20:01,120,126,131,3.3,3.5,3.7,18.9,77.0,1012.8,0.00,0,0.0,////,0.0,0,0.0,////,17.7,0.0,12.3,3.523
2014/02/01,03:30:01,135,136,138,3.2,3.3,3.5,18.7,77.6,1012.8,0.00,0,0.0,////,0.0,0,0.0,////,17.4,0.0,12.3,3.523
2014/02/01,03:40:01,110,118,125,2.8,2.9,3.0,18.7,77.7,1012.6,0.00,0,0.0,////,0.0,0,0.0,////,17.2,0.0,12.3,3.524
2014/02/01,03:50:01,130,132,135,2.6,3.1,3.7,18.7,78.0,1012.5,0.00,0,0.0,////,0.0,0,0.0,////,17.4,0.0,12.3,3.521
2014/02/01,04:00:01,109,122,130,3.4,3.6,4.0,18.6,77.7,1012.5,0.00,0,0.0,////,0.0,0,0.0,////,17.2,0.0,12.3,3.523
2014/02/01,04:10:01,141,143,149,1.7,2.2,2.7,18.8,77.3,1012.4,0.00,0,0.0,////,0.0,0,0.0,////,17.4,0.0,12.3,3.523
2014/02/01,04:20:01,110,118,129,2.5,2.9,3.2,18.7,77.0,1012.4,0.00,0,0.0,////,0.0,0,0.0,////,17.2,0.0,12.3,3.521
2014/02/01,04:30:01,179,181,183,0.9,1.1,1.3,18.7,77.0,1012.3,0.00,0,0.0,////,0.0,0,0.0,////,17.2,0.0,12.3,3.521
2014/02/01,04:40:01,124,157,185,1.3,1.6,2.0,18.8,77.2,1012.3,0.00,0,0.0,////,0.0,0,0.0,////,17.2,0.0,12.3,3.523
2014/02/01,04:50:01,130,134,140,3.1,3.5,3.9,18.8,77.3,1012.2,0.00,0,0.0,////,0.0,0,0.0,////,17.2,0.0,12.3,3.523
2014/02/01,05:00:01,106,111,119,1.7,2.2,2.6,18.7,77.6,1012.2,0.00,0,0.0,////,0.0,0,0.0,////,17.2,0.0,12.3,3.523
2014/02/01,05:10:01,080,105,119,2.5,3.2,3.7,18.7,77.7,1012.2,0.00,0,0.0,////,0.0,0,0.0,////,16.9,0.0,12.3,3.524
2014/02/01,05:20:01,116,123,129,3.7,4.0,4.4,18.8,77.7,1012.2,0.00,0,0.0,////,0.0,0,0.0,////,17.2,0.0,12.3,3.523
2014/02/01,05:30:01,110,116,119,2.2,3.0,3.6,18.8,78.5,1012.1,0.00,0,0.0,////,0.0,0,0.0,////,17.4,0.0,12.3,3.523
2014/02/01,05:40:01,118,127,144,2.9,4.1,4.8,18.8,78.8,1012.1,0.00,0,0.0,////,0.0,0,0.0,////,17.4,0.0,12.3,3.521
2014/02/01,05:50:01,132,141,158,2.7,3.2,3.6,18.8,78.6,1012.1,0.00,0,0.0,////,0.0,0,0.0,////,17.4,0.0,12.3,3.523
2014/02/01,06:00:01,111,114,116,3.2,3.3,3.5,18.8,79.1,1012.1,0.00,0,0.0,////,0.0,0,0.0,////,17.4,0.0,12.3,3.523
2014/02/01,06:10:01,128,132,139,3.1,3.5,4.1,18.9,79.3,1012.2,0.00,0,0.0,////,0.0,0,0.0,////,17.7,0.0,12.3,3.523
2014/02/01,06:20:01,128,135,138,4.1,4.9,5.6,19.0,79.3,1012.3,0.00,0,0.0,////,0.0,0,0.0,////,17.5,0.0,12.3,3.521
2014/02/01,06:30:01,133,135,137,5.7,5.8,6.0,19.0,79.1,1012.2,0.00,0,0.0,////,0.0,0,0.0,////,17.5,0.0,12.3,3.521
2014/02/01,06:40:01,110,113,116,3.6,3.9,4.5,18.9,78.8,1012.3,0.00,0,0.0,////,0.0,0,0.0,////,17.5,0.0,12.3,3.523
2014/02/01,06:50:01,132,132,133,4.0,4.2,4.3,19.0,78.8,1012.5,0.00,0,0.0,////,0.0,0,0.0,////,17.7,0.0,12.3,3.521
2014/02/01,07:00:01,111,122,134,3.6,4.3,4.6,19.0,77.6,1012.5,0.00,0,0.0,////,0.0,0,0.0,////,17.7,0.0,12.3,3.524
2014/02/01,07:10:01,138,146,151,2.0,2.3,2.7,18.9,77.1,1012.7,0.00,0,0.0,////,0.0,0,0.0,////,17.5,0.0,12.3,3.523
2014/02/01,07:20:01,149,158,168,2.1,2.5,2.9,19.0,77.0,1012.8,0.00,0,0.0,////,0.0,0,0.0,////,17.0,0.0,12.3,3.523
2014/02/01,07:30:01,120,129,138,1.4,1.6,1.7,19.0,76.7,1013.0,0.00,0,0.0,////,0.0,0,0.0,////,17.5,0.0,12.3,3.523
2014/02/01,07:40:01,129,138,143,1.5,1.9,2.1,19.0,76.5,1013.1,0.00,0,0.0,////,0.0,0,0.0,////,17.5,0.0,12.3,3.523
2014/02/01,07:50:01,139,146,153,2.2,2.4,2.6,19.0,76.4,1013.0,0.00,0,0.0,////,0.0,0,0.0,////,17.7,0.0,12.3,3.523
2014/02/01,08:00:01,150,156,159,2.0,2.6,3.2,19.2,76.0,1013.1,0.00,0,0.0,////,0.0,0,0.0,////,18.1,0.0,12.3,3.523
2014/02/01,08:10:01,130,132,133,2.2,2.4,2.5,19.7,74.3,1013.2,0.00,0,0.0,////,0.0,0,0.0,////,19.4,0.0,12.3,3.523
2014/02/01,08:20:01,177,181,188,2.2,2.3,2.4,19.9,72.2,1013.3,0.00,0,0.0,////,0.0,0,0.0,////,20.1,0.0,12.3,3.523
2014/02/01,08:30:01,111,125,137,0.7,1.0,1.2,20.2,70.8,1013.4,0.00,0,0.0,////,0.0,0,0.0,////,20.8,0.0,12.3,3.523
2014/02/01,08:40:01,116,119,122,2.5,2.6,2.6,20.5,70.1,1013.3,0.00,0,0.0,////,0.0,0,0.0,////,21.2,0.0,12.3,3.523
2014/02/01,08:50:01,107,107,108,1.2,1.4,1.7,20.7,70.0,1013.1,0.00,0,0.0,////,0.0,0,0.0,////,21.5,0.0,12.3,3.523
2014/02/01,09:00:01,105,118,137,2.7,4.0,5.2,20.9,68.2,1013.0,0.00,0,0.0,////,0.0,0,0.0,////,22.2,0.0,12.3,3.523
2014/02/01,09:10:01,173,175,178,3.3,4.3,5.3,21.0,67.7,1013.1,0.00,0,0.0,////,0.0,0,0.0,////,21.8,0.0,12.3,3.521
2014/02/01,09:20:01,177,179,184,2.7,3.2,3.6,21.2,67.9,1013.2,0.00,0,0.0,////,0.0,0,0.0,////,22.4,0.0,12.3,3.521
2014/02/01,09:30:01,120,124,130,2.1,2.3,2.5,21.6,65.9,1013.3,0.00,0,0.0,////,0.0,0,0.0,////,23.4,0.0,12.3,3.523
2014/02/01,09:40:01,164,168,172,2.2,2.4,2.7,21.8,65.4,1013.3,0.00,0,0.0,////,0.0,0,0.0,////,24.1,0.0,12.3,3.521
2014/02/01,09:50:01,098,107,116,1.8,2.1,2.4,21.6,66.1,1013.3,0.00,0,0.0,////,0.0,0,0.0,////,23.2,0.0,12.3,3.521
2014/02/01,10:00:01,140,153,160,3.2,3.5,4.0,21.9,65.1,1013.3,0.00,0,0.0,////,0.0,0,0.0,////,24.1,0.0,12.3,3.523
2014/02/01,10:10:01,109,126,137,2.8,3.0,3.2,22.0,66.1,1013.3,0.00,0,0.0,////,0.0,0,0.0,////,24.1,0.0,12.2,3.524
2014/02/01,10:20:01,122,131,144,2.2,2.4,2.5,21.8,65.0,1013.2,0.00,0,0.0,////,0.0,0,0.0,////,24.1,0.0,12.3,3.523
2014/02/01,10:30:01,102,113,120,3.3,3.7,4.1,21.8,65.4,1013.1,0.00,0,0.0,////,0.0,0,0.0,////,23.2,0.0,12.3,3.521
2014/02/01,10:40:01,145,147,148,2.8,3.0,3.4,21.3,66.5,1013.0,0.00,0,0.0,////,0.0,0,0.0,////,21.8,0.0,12.3,3.521
2014/02/01,10:50:01,092,098,101,1.2,1.6,2.0,22.1,67.8,1012.9,0.00,0,0.0,////,0.0,0,0.0,////,23.2,0.0,12.3,3.521
2014/02/01,11:00:01,131,155,179,2.7,3.0,3.6,22.1,66.7,1012.9,0.00,0,0.0,////,0.0,0,0.0,////,23.7,0.0,12.3,3.521
2014/02/01,11:10:01,073,094,105,2.4,2.9,3.7,21.7,64.7,1012.7,0.00,0,0.0,////,0.0,0,0.0,////,23.1,0.0,12.3,3.521
2014/02/01,11:20:01,169,176,180,3.0,3.7,4.3,22.0,64.5,1012.7,0.00,0,0.0,////,0.0,0,0.0,////,23.7,0.0,12.3,3.521
2014/02/01,11:30:01,213,215,218,1.9,2.4,2.7,21.5,67.0,1012.4,0.00,0,0.0,////,0.0,0,0.0,////,22.4,0.0,12.3,3.523
2014/02/01,11:40:01,113,118,124,3.5,4.1,5.1,22.1,66.8,1012.3,0.00,0,0.0,////,0.0,0,0.0,////,23.4,0.0,12.3,3.521
2014/02/01,11:50:01,202,210,215,3.1,3.6,4.2,22.2,65.9,1012.2,0.00,0,0.0,////,0.0,0,0.0,////,23.4,0.0,12.3,3.523
2014/02/01,12:00:01,114,132,156,3.0,3.2,3.4,21.6,66.0,1012.1,0.00,0,0.0,////,0.0,0,0.0,////,22.4,0.0,12.3,3.521
2014/02/01,12:10:01,114,115,116,2.9,3.2,3.4,21.9,67.5,1011.9,0.00,0,0.0,////,0.0,0,0.0,////,22.4,0.0,12.3,3.523
2014/02/01,12:20:01,178,181,186,1.9,2.3,3.0,22.3,66.6,1011.8,0.00,0,0.0,////,0.0,0,0.0,////,23.1,0.0,12.3,3.523
2014/02/01,12:30:01,143,148,155,2.2,3.0,4.2,22.3,64.8,1011.6,0.00,0,0.0,////,0.0,0,0.0,////,23.7,0.0,12.3,3.523
2014/02/01,12:40:01,159,168,175,2.2,2.8,3.6,22.5,64.5,1011.4,0.00,0,0.0,////,0.0,0,0.0,////,24.1,0.0,12.3,3.521
2014/02/01,12:50:01,153,158,162,3.4,3.5,3.7,22.5,64.4,1011.2,0.00,0,0.0,////,0.0,0,0.0,////,24.6,0.0,12.3,3.521
2014/02/01,13:00:01,146,157,179,1.8,2.0,2.2,22.2,65.4,1010.9,0.00,0,0.0,////,0.0,0,0.0,////,23.4,0.0,12.4,3.521
2014/02/01,13:10:01,173,175,177,2.5,2.7,2.9,22.4,64.7,1010.8,0.00,0,0.0,////,0.0,0,0.0,////,23.7,0.0,12.3,3.523
2014/02/01,13:20:01,166,173,186,1.2,1.7,2.3,23.2,64.1,1010.7,0.00,0,0.0,////,0.0,0,0.0,////,25.1,0.0,12.3,3.524
2014/02/01,13:30:01,191,194,198,2.7,2.8,2.9,22.5,63.8,1010.5,0.00,0,0.0,////,0.0,0,0.0,////,24.1,0.0,12.3,3.523
2014/02/01,13:40:01,117,120,124,2.0,2.3,2.7,22.5,68.0,1010.4,0.00,0,0.0,////,0.0,0,0.0,////,23.6,0.0,12.3,3.523
2014/02/01,13:50:01,124,134,145,2.4,2.9,3.3,22.0,68.8,1010.2,0.00,0,0.0,////,0.0,0,0.0,////,22.7,0.0,12.3,3.523
2014/02/01,14:00:01,118,124,133,2.0,2.7,3.0,22.0,70.7,1010.2,0.00,0,0.0,////,0.0,0,0.0,////,22.4,0.0,12.3,3.523
2014/02/01,14:10:01,124,126,128,1.9,2.3,2.7,21.7,70.6,1010.0,0.00,0,0.0,////,0.0,0,0.0,////,21.8,0.0,12.3,3.523
2014/02/01,14:20:01,154,159,163,4.0,4.3,4.6,21.6,71.0,1010.0,0.00,0,0.0,////,0.0,0,0.0,////,21.7,0.0,12.2,3.521
2014/02/01,14:30:01,121,131,147,2.7,2.8,3.0,21.8,70.4,1009.8,0.00,0,0.0,////,0.0,0,0.0,////,22.2,0.0,12.3,3.523
2014/02/01,14:40:01,110,112,115,3.7,4.0,4.3,22.1,70.3,1009.6,0.00,0,0.0,////,0.0,0,0.0,////,22.5,0.0,12.2,3.521
2014/02/01,14:50:01,152,157,161,3.4,3.5,3.7,22.1,70.2,1009.3,0.00,0,0.0,////,0.0,0,0.0,////,22.7,0.0,12.3,3.521
2014/02/01,15:00:01,182,197,211,1.1,1.3,1.7,22.5,70.5,1009.2,0.00,0,0.0,////,0.0,0,0.0,////,23.2,0.0,12.3,3.521
2014/02/01,15:10:01,099,108,120,2.0,2.1,2.3,22.5,71.0,1009.1,0.00,0,0.0,////,0.0,0,0.0,////,23.7,0.0,12.3,3.521
2014/02/01,15:20:01,171,177,184,1.0,1.1,1.2,22.1,71.9,1009.2,0.00,0,0.0,////,0.0,0,0.0,////,22.7,0.0,12.3,3.521
2014/02/01,15:30:01,114,116,121,2.8,3.3,3.6,21.9,72.3,1009.2,0.00,0,0.0,////,0.0,0,0.0,////,22.0,0.0,12.3,3.521
2014/02/01,15:40:01,177,182,186,1.7,1.9,2.0,22.0,72.5,1009.2,0.00,0,0.0,////,0.0,0,0.0,////,22.0,0.0,12.3,3.523
2014/02/01,15:50:01,187,190,196,2.6,2.9,3.3,21.8,72.4,1009.1,0.00,0,0.0,////,0.0,0,0.0,////,21.8,0.0,12.3,3.523
2014/02/01,16:00:01,173,179,190,2.6,2.9,3.2,21.7,72.6,1009.1,0.00,0,0.0,////,0.0,0,0.0,////,21.5,0.0,12.3,3.521
2014/02/01,16:10:01,114,115,116,2.5,2.6,2.8,21.6,73.5,1009.2,0.00,0,0.0,////,0.0,0,0.0,////,21.2,0.0,12.3,3.521
2014/02/01,16:20:01,129,135,143,1.4,1.6,1.7,21.5,74.3,1009.2,0.00,0,0.0,////,0.0,0,0.0,////,21.0,0.0,12.3,3.523
2014/02/01,16:30:01,114,130,151,0.9,1.2,1.4,21.5,73.9,1009.2,0.00,0,0.0,////,0.0,0,0.0,////,20.8,0.0,12.3,3.521
2014/02/01,16:40:01,148,160,169,2.8,3.1,3.4,21.5,74.5,1009.2,0.00,0,0.0,////,0.0,0,0.0,////,21.0,0.0,12.3,3.523
2014/02/01,16:50:01,140,155,181,1.5,1.7,1.9,21.2,76.0,1009.1,0.00,0,0.0,////,0.0,0,0.0,////,20.3,0.0,12.3,3.523
2014/02/01,17:00:01,131,139,145,2.0,2.1,2.2,21.1,77.0,1009.1,0.00,0,0.0,////,0.0,0,0.0,////,20.0,0.0,12.3,3.523
2014/02/01,17:10:01,134,136,137,1.5,1.9,2.2,21.1,77.6,1008.9,0.00,0,0.0,////,0.0,0,0.0,////,20.6,0.0,12.3,3.521
2014/02/01,17:20:01,160,174,183,2.0,2.5,3.0,21.2,77.8,1008.9,0.00,0,0.0,////,0.0,0,0.0,////,20.5,0.0,12.3,3.523
2014/02/01,17:30:01,167,170,174,2.4,2.8,3.2,21.0,78.7,1009.0,0.00,0,0.0,////,0.0,0,0.0,////,20.3,0.0,12.3,3.521
2014/02/01,17:40:01,158,160,163,2.8,3.0,3.1,20.9,79.8,1009.0,0.00,0,0.0,////,0.0,0,0.0,////,20.0,0.0,12.3,3.523
2014/02/01,17:50:01,165,173,179,2.4,2.8,3.4,20.7,80.1,1008.9,0.00,0,0.0,////,0.0,0,0.0,////,19.6,0.0,12.3,3.521
2014/02/01,18:00:01,125,142,156,3.5,3.9,4.2,20.6,79.9,1008.5,0.00,0,0.0,////,0.0,0,0.0,////,19.8,0.0,12.3,3.521
2014/02/01,18:10:01,145,148,149,5.8,6.6,7.1,20.7,79.8,1008.1,0.00,0,0.0,////,0.0,0,0.0,////,19.8,0.0,12.3,3.521
2014/02/01,18:20:01,141,152,160,6.7,7.3,7.9,20.7,80.2,1008.1,0.00,0,0.0,////,0.0,0,0.0,////,19.8,0.0,12.2,3.524
2014/02/01,18:30:01,132,136,142,2.4,3.2,3.7,20.9,79.9,1008.0,0.00,0,0.0,////,0.0,0,0.0,////,20.0,0.0,12.3,3.523
2014/02/01,18:40:01,131,139,154,4.6,4.9,5.4,21.0,80.1,1008.0,0.00,0,0.0,////,0.0,0,0.0,////,20.1,0.0,12.3,3.523
2014/02/01,18:50:01,159,161,164,1.7,1.9,2.1,20.9,80.9,1008.2,0.00,0,0.0,////,0.0,0,0.0,////,20.0,0.0,12.3,3.521
2014/02/01,19:00:01,274,294,307,1.3,1.4,1.7,20.9,79.4,1008.5,0.00,0,0.0,////,0.0,0,0.0,////,20.0,0.0,12.3,3.523
2014/02/01,19:10:01,099,104,108,2.5,2.6,2.7,20.9,78.7,1008.4,0.00,0,0.0,////,0.0,0,0.0,////,20.0,0.0,12.3,3.521
2014/02/01,19:20:01,153,169,193,1.0,1.3,1.7,21.1,79.0,1008.5,0.00,0,0.0,////,0.0,0,0.0,////,20.1,0.0,12.3,3.521
2014/02/01,19:30:01,131,136,144,2.7,3.3,4.1,21.0,78.7,1008.5,0.00,0,0.0,////,0.0,0,0.0,////,20.1,0.0,12.3,3.521
2014/02/01,19:40:01,147,187,217,1.0,1.3,1.5,21.2,79.0,1008.7,0.00,0,0.0,////,0.0,0,0.0,////,20.0,0.0,12.3,3.521
2014/02/01,19:50:01,348,353,358,2.6,2.7,2.8,21.1,79.5,1008.7,0.00,0,0.0,////,0.0,0,0.0,////,20.0,0.0,12.3,3.523
2014/02/01,20:00:01,355,000,005,2.4,2.6,2.9,21.1,79.9,1008.8,0.00,0,0.0,////,0.0,0,0.0,////,20.1,0.0,12.3,3.521
2014/02/01,20:10:01,327,339,348,1.7,1.9,2.1,21.2,79.7,1008.9,0.00,0,0.0,////,0.0,0,0.0,////,20.1,0.0,12.3,3.521
2014/02/01,20:20:01,321,331,336,1.4,1.6,1.9,21.2,79.8,1008.9,0.00,0,0.0,////,0.0,0,0.0,////,20.1,0.0,12.3,3.521
2014/02/01,20:30:01,290,291,291,1.4,1.6,1.7,21.3,78.0,1008.8,0.00,0,0.0,////,0.0,0,0.0,////,20.3,0.0,12.3,3.523
2014/02/01,20:40:01,152,159,166,3.5,3.8,4.0,21.3,77.3,1008.6,0.00,0,0.0,////,0.0,0,0.0,////,20.3,0.0,12.3,3.521
2014/02/01,20:50:01,168,179,186,5.0,5.7,6.7,21.8,75.5,1008.4,0.00,0,0.0,////,0.0,0,0.0,////,20.8,0.0,12.3,3.525
2014/02/01,21:00:01,134,150,160,7.0,7.8,9.0,21.6,77.4,1008.4,0.00,0,0.0,////,0.0,0,0.0,////,20.6,0.0,12.3,3.521
2014/02/01,21:10:01,191,194,196,4.6,4.8,4.9,21.7,75.2,1008.4,0.00,0,0.0,////,0.0,0,0.0,////,20.8,0.0,12.3,3.521
2014/02/01,21:20:01,151,152,153,2.1,3.0,3.9,22.0,74.6,1008.4,0.00,0,0.0,////,0.0,0,0.0,////,21.2,0.0,12.3,3.523
2014/02/01,21:30:01,133,144,154,3.9,4.6,5.5,22.1,74.3,1008.3,0.00,0,0.0,////,0.0,0,0.0,////,21.2,0.0,12.3,3.521
2014/02/01,21:40:01,126,147,159,3.8,4.3,5.2,22.2,74.6,1008.3,0.00,0,0.0,////,0.0,0,0.0,////,21.3,0.0,12.3,3.521
2014/02/01,21:50:01,130,137,141,4.5,4.6,4.7,21.7,77.3,1008.5,0.00,0,0.0,////,0.0,0,0.0,////,20.8,0.0,12.3,3.521
2014/02/01,22:00:01,135,144,154,3.0,3.6,4.1,21.6,78.3,1008.4,0.00,0,0.0,////,0.0,0,0.0,////,20.8,0.0,12.3,3.521
2014/02/01,22:10:01,157,163,171,2.3,3.2,3.8,21.4,79.1,1008.4,0.00,0,0.0,////,0.0,0,0.0,////,20.6,0.0,12.3,3.523
2014/02/01,22:20:01,161,169,173,3.8,4.4,4.8,21.6,77.6,1008.4,0.00,0,0.0,////,0.0,0,0.0,////,20.5,0.0,12.3,3.523
2014/02/01,22:30:01,111,129,138,2.7,3.2,3.8,21.7,75.8,1008.4,0.00,0,0.0,////,0.0,0,0.0,////,20.8,0.0,12.3,3.524
2014/02/01,22:40:01,160,164,169,1.6,1.9,2.2,21.7,74.0,1008.3,0.00,0,0.0,////,0.0,0,0.0,////,20.8,0.0,12.2,3.523
2014/02/01,22:50:01,189,190,190,3.2,3.4,3.6,21.9,71.6,1008.1,0.00,0,0.0,////,0.0,0,0.0,////,21.2,0.0,12.3,3.521
2014/02/01,23:00:01,111,131,149,0.5,0.8,1.2,22.1,70.4,1008.0,0.00,0,0.0,////,0.0,0,0.0,////,21.3,0.0,12.3,3.523
2014/02/01,23:10:01,166,169,172,2.8,3.0,3.2,21.9,73.3,1008.2,0.00,0,0.0,////,0.0,0,0.0,////,21.0,0.0,12.3,3.523
2014/02/01,23:20:01,165,171,178,3.6,4.0,4.3,21.7,74.5,1008.1,0.00,0,0.0,////,0.0,0,0.0,////,20.8,0.0,12.3,3.523
2014/02/01,23:30:01,197,209,220,2.8,3.0,3.4,21.8,74.7,1007.9,0.00,0,0.0,////,0.0,0,0.0,////,20.8,0.0,12.3,3.523
2014/02/01,23:40:01,173,176,180,2.8,3.4,3.8,21.8,74.3,1007.9,0.00,0,0.0,////,0.0,0,0.0,////,20.8,0.0,12.3,3.520
2014/02/01,23:50:01,183,187,192,2.6,2.8,3.0,21.7,75.1,1008.0,0.00,0,0.0,////,0.0,0,0.0,////,20.8,0.0,12.3,3.519
2014/02/02,00:00:01,203,204,205,4.8,5.2,5.7,21.6,75.6,1007.9,0.00,0,0.0,////,0.0,0,0.0,////,20.6,0.0,12.3,3.523
2014/02/02,00:10:01,195,197,201,3.7,4.0,4.3,21.7,75.2,1008.0,0.00,0,0.0,////,0.0,0,0.0,////,20.6,0.0,12.3,3.523
2014/02/02,00:20:01,212,218,221,4.9,5.3,5.6,21.5,76.9,1007.9,0.00,30,0.0,////,0.0,0,0.0,////,20.0,0.0,12.3,3.523
2014/02/02,00:30:01,180,182,184,4.0,4.3,4.6,21.2,78.3,1007.9,0.00,0,0.0,////,0.0,0,0.0,////,19.8,0.0,12.3,3.521
2014/02/02,00:40:01,188,193,197,3.1,3.3,3.6,21.0,79.1,1007.8,0.00,0,0.0,////,0.0,0,0.0,////,20.0,0.0,12.3,3.523
2014/02/02,00:50:01,162,176,188,1.9,2.4,2.9,21.0,79.1,1007.7,0.00,0,0.0,////,0.0,0,0.0,////,20.1,0.0,12.3,3.521
2014/02/02,01:00:01,161,164,170,2.1,2.7,3.3,21.0,78.5,1007.7,0.00,0,0.0,////,0.0,0,0.0,////,20.1,0.0,12.3,3.523
2014/02/02,01:10:01,186,188,189,3.9,4.1,4.4,21.1,77.4,1007.6,0.00,0,0.0,////,0.0,0,0.0,////,20.1,0.0,12.3,3.523
2014/02/02,01:20:01,203,218,232,1.0,1.3,1.9,21.4,76.6,1007.5,0.00,0,0.0,////,0.0,0,0.0,////,20.5,0.0,12.3,3.525
2014/02/02,01:30:01,209,215,222,1.4,2.0,2.7,21.5,76.7,1007.6,0.00,0,0.0,////,0.0,0,0.0,////,20.6,0.0,12.2,3.523
2014/02/02,01:40:01,198,202,209,1.5,1.6,1.7,21.5,77.2,1007.4,0.01,90,0.0,////,0.0,0,0.0,////,20.3,0.0,12.3,3.521
2014/02/02,01:50:01,218,221,226,1.2,1.4,1.6,21.5,78.5,1007.3,0.00,0,0.0,////,0.0,0,0.0,////,19.8,0.0,12.3,3.523
2014/02/02,02:00:01,100,103,105,1.0,1.1,1.2,21.3,79.7,1007.2,0.00,0,0.0,////,0.0,0,0.0,////,19.8,0.0,12.3,3.524
2014/02/02,02:10:01,217,219,220,0.1,0.2,0.3,21.1,81.9,1007.3,0.00,0,0.0,////,0.0,0,0.0,////,19.6,0.0,12.3,3.523
2014/02/02,02:20:01,286,297,317,2.1,2.5,2.8,21.0,83.4,1007.8,1.78,580,19.5,////,0.0,0,0.0,////,19.1,0.0,12.3,3.523
2014/02/02,02:30:01,180,183,187,1.1,1.3,1.4,20.8,85.4,1007.3,3.46,590,13.2,////,0.0,0,0.0,////,19.3,0.0,12.3,3.524
2014/02/02,02:40:01,217,220,222,1.0,1.1,1.2,20.5,86.9,1007.2,0.29,410,0.0,////,0.0,0,0.0,////,18.9,0.0,12.3,3.523
2014/02/02,02:50:01,189,193,197,0.5,0.6,0.8,20.4,87.9,1007.2,0.00,0,0.0,////,0.0,0,0.0,////,18.7,0.0,12.3,3.523
2014/02/02,03:00:01,184,191,201,0.4,0.5,0.5,20.3,88.6,1007.1,0.00,0,0.0,////,0.0,0,0.0,////,18.9,0.0,12.3,3.521
2014/02/02,03:10:01,164,166,167,0.7,0.7,0.8,20.2,89.0,1006.9,0.00,0,0.0,////,0.0,0,0.0,////,18.7,0.0,12.3,3.523
2014/02/02,03:20:01,098,101,103,1.0,1.1,1.2,20.1,89.3,1006.6,0.00,0,0.0,////,0.0,0,0.0,////,18.9,0.0,12.3,3.521
2014/02/02,03:30:01,142,146,153,1.6,1.7,1.8,20.0,89.8,1006.7,0.00,0,0.0,////,0.0,0,0.0,////,18.6,0.0,12.3,3.523
2014/02/02,03:40:01,159,165,173,1.2,1.3,1.4,20.0,89.9,1006.5,0.00,0,0.0,////,0.0,0,0.0,////,18.6,0.0,12.3,3.523
2014/02/02,03:50:01,182,185,188,1.1,1.2,1.3,20.0,89.9,1006.5,0.02,90,0.0,////,0.0,0,0.0,////,18.7,0.0,12.3,3.523
2014/02/02,04:00:01,169,172,175,1.0,1.0,1.1,20.1,89.7,1006.2,0.00,0,0.0,////,0.0,0,0.0,////,18.7,0.0,12.3,3.523
2014/02/02,04:10:01,237,237,238,0.4,0.5,0.6,20.1,89.6,1006.2,0.00,0,0.0,////,0.0,0,0.0,////,18.7,0.0,12.3,3.523
2014/02/02,04:20:01,178,183,189,0.6,0.7,0.8,20.1,89.4,1006.1,0.00,0,0.0,////,0.0,0,0.0,////,18.9,0.0,12.3,3.520
2014/02/02,04:30:01,286,287,289,0.3,0.4,0.4,20.1,89.1,1006.0,0.00,0,0.0,////,0.0,0,0.0,////,18.7,0.0,12.3,3.523
2014/02/02,04:40:01,305,313,320,0.4,0.5,0.5,20.2,88.9,1006.1,0.00,0,0.0,////,0.0,0,0.0,////,18.9,0.0,12.3,3.524
2014/02/02,04:50:01,267,269,272,0.6,0.6,0.7,20.3,88.9,1006.0,0.00,0,0.0,////,0.0,0,0.0,////,19.1,0.0,12.3,3.523
2014/02/02,05:00:01,268,271,273,0.5,0.6,0.7,20.4,88.9,1005.9,0.00,0,0.0,////,0.0,0,0.0,////,19.3,0.0,12.3,3.523
2014/02/02,05:10:01,299,303,308,0.9,1.0,1.1,20.4,88.8,1005.8,0.00,0,0.0,////,0.0,0,0.0,////,19.3,0.0,12.3,3.524
2014/02/02,05:20:01,234,251,269,0.3,0.4,0.5,20.5,88.8,1005.8,0.00,0,0.0,////,0.0,0,0.0,////,19.3,0.0,12.3,3.523
2014/02/02,05:30:01,176,177,178,0.9,0.9,1.0,20.5,88.7,1005.7,0.00,0,0.0,////,0.0,0,0.0,////,19.1,0.0,12.3,3.523
2014/02/02,05:40:01,203,204,204,1.6,1.7,1.8,20.4,88.9,1005.7,0.00,0,0.0,////,0.0,0,0.0,////,19.1,0.0,12.2,3.521
2014/02/02,05:50:01,208,209,209,1.1,1.2,1.3,20.1,88.7,1005.7,0.00,0,0.0,////,0.0,0,0.0,////,19.1,0.0,12.3,3.523
2014/02/02,06:00:01,192,194,195,1.1,1.2,1.3,20.1,88.4,1005.7,0.00,0,0.0,////,0.0,0,0.0,////,19.1,0.0,12.3,3.523
2014/02/02,06:10:01,258,261,266,0.4,0.4,0.5,20.1,88.0,1005.5,0.00,0,0.0,////,0.0,0,0.0,////,18.9,0.0,12.3,3.521
2014/02/02,06:20:01,176,176,177,1.8,1.9,2.0,20.0,87.5,1005.3,0.00,0,0.0,////,0.0,0,0.0,////,18.9,0.0,12.3,3.520
2014/02/02,06:30:01,198,214,224,0.8,1.1,1.3,19.9,87.2,1005.7,0.00,0,0.0,////,0.0,0,0.0,////,18.7,0.0,12.3,3.521
2014/02/02,06:40:01,239,240,241,0.9,1.0,1.2,20.1,86.9,1005.7,0.00,40,0.1,////,0.0,0,0.0,////,18.9,0.0,12.3,3.523
2014/02/02,06:50:01,200,203,204,1.5,1.6,1.8,20.1,86.6,1005.7,0.09,270,0.0,////,0.0,0,0.0,////,18.9,0.0,12.3,3.523
2014/02/02,07:00:01,191,199,206,1.2,1.5,1.7,20.1,87.2,1006.0,0.00,20,0.0,////,0.0,0,0.0,////,18.6,0.0,12.3,3.523
2014/02/02,07:10:01,212,219,227,1.1,1.3,1.5,20.1,87.6,1006.0,0.00,0,0.0,////,0.0,0,0.0,////,18.6,0.0,12.3,3.523
2014/02/02,07:20:01,216,219,221,1.2,1.3,1.4,20.1,87.8,1006.0,0.00,40,0.0,////,0.0,0,0.0,////,18.6,0.0,12.2,3.521
2014/02/02,07:30:01,187,193,199,1.9,2.1,2.2,20.0,88.2,1006.0,0.00,0,0.0,////,0.0,0,0.0,////,18.7,0.0,12.3,3.521
2014/02/02,07:40:01,217,217,218,1.9,2.1,2.2,20.0,88.8,1006.0,0.00,0,0.0,////,0.0,0,0.0,////,18.4,0.0,12.3,3.521
2014/02/02,07:50:01,219,222,225,1.1,1.3,1.4,19.9,88.5,1005.8,0.00,0,0.0,////,0.0,0,0.0,////,18.4,0.0,12.3,3.521
2014/02/02,08:00:01,268,277,292,0.8,0.9,1.0,20.0,88.4,1005.8,0.00,0,0.0,////,0.0,0,0.0,////,18.7,0.0,12.3,3.523
2014/02/02,08:10:01,252,257,261,1.0,1.1,1.2,20.1,88.1,1005.9,0.00,0,0.0,////,0.0,0,0.0,////,18.7,0.0,12.3,3.523
2014/02/02,08:20:01,237,239,241,0.8,0.8,0.9,20.2,88.0,1005.9,0.00,0,0.0,////,0.0,0,0.0,////,18.9,0.0,12.3,3.523
2014/02/02,08:30:01,200,203,208,0.3,0.4,0.4,20.3,87.8,1006.1,0.00,0,0.0,////,0.0,0,0.0,////,19.3,0.0,12.3,3.523
2014/02/02,08:40:01,023,027,031,0.4,0.4,0.5,20.3,87.6,1006.2,0.00,0,0.0,////,0.0,0,0.0,////,19.6,0.0,12.3,3.523
2014/02/02,08:50:01,014,019,024,2.4,2.8,3.3,20.2,86.5,1006.3,0.00,0,0.0,////,0.0,0,0.0,////,19.3,0.0,12.3,3.521
2014/02/02,09:00:01,024,026,028,3.2,3.4,3.6,20.0,88.8,1006.4,0.00,0,0.0,////,0.0,0,0.0,////,19.1,0.0,12.3,3.523
2014/02/02,09:10:01,007,019,029,1.2,1.6,1.9,19.9,89.9,1006.5,0.00,0,0.0,////,0.0,0,0.0,////,18.9,0.0,12.3,3.523
2014/02/02,09:20:01,044,050,054,2.7,2.8,3.1,19.8,90.5,1006.4,0.00,0,0.0,////,0.0,0,0.0,////,18.7,0.0,12.3,3.521
2014/02/02,09:30:01,060,068,074,1.5,1.8,2.1,19.8,91.0,1006.3,0.00,0,0.0,////,0.0,0,0.0,////,18.7,0.0,12.3,3.523
2014/02/02,09:40:01,071,079,090,1.8,2.0,2.3,19.9,91.3,1006.3,0.00,0,0.0,////,0.0,0,0.0,////,19.1,0.0,12.3,3.524
2014/02/02,09:50:01,016,024,036,2.1,2.3,2.5,19.9,91.4,1006.7,0.00,0,0.0,////,0.0,0,0.0,////,19.1,0.0,12.3,3.523
2014/02/02,10:00:01,061,076,094,4.1,4.6,5.3,20.0,91.2,1006.8,0.00,0,0.0,////,0.0,0,0.0,////,19.6,0.0,12.3,3.523
2014/02/02,10:10:01,082,090,098,3.2,3.7,4.0,20.3,91.6,1006.5,0.00,0,0.0,////,0.0,0,0.0,////,20.8,0.0,12.3,3.521
2014/02/02,10:20:01,092,095,098,3.8,4.1,4.5,20.1,89.1,1006.5,0.00,0,0.0,////,0.0,0,0.0,////,21.3,0.0,12.3,3.523
2014/02/02,10:30:01,106,117,130,3.3,3.5,3.8,19.9,86.3,1006.4,0.00,0,0.0,////,0.0,0,0.0,////,21.2,0.0,12.2,3.521
2014/02/02,10:40:01,114,120,124,3.1,3.5,3.8,20.6,83.0,1006.3,0.00,0,0.0,////,0.0,0,0.0,////,22.5,0.0,12.3,3.523